FW5816 Weather Reports


Display with metric or nautical units.
time (UTC)temp
F
wind
direction
speed
MPH
gust
MPH
rain 1hr
in
rain 24hr
in
rain mn
in
humidity
%
barometer
mb
20260510105510 60 0 0.0 1.0 0.00 0.00 0.00 75 1013.0
20260510105010 60 0 0.0 1.0 0.00 0.00 0.00 75 1013.0
20260510104530 60 0 0.0 1.0 0.00 0.00 0.00 75 1012.8
20260510104013 60 239 0.0 1.0 0.00 0.00 0.00 75 1012.7
20260510103510 60 0 0.0 1.0 0.00 0.00 0.00 75 1012.7
20260510103030 60 0 0.0 2.0 0.00 0.00 0.00 75 1012.5
20260510102559 60 238 0.0 2.0 0.00 0.00 0.00 75 1012.4
20260510102012 60 276 0.0 1.0 0.00 0.00 0.00 76 1012.1
20260510101529 60 276 0.0 1.0 0.00 0.00 0.00 76 1012.0
20260510101010 60 276 0.0 1.0 0.00 0.00 0.00 76 1012.0
20260510100513 60 0 0.0 1.0 0.00 0.00 0.00 76 1012.1
20260510100029 60 0 0.0 1.0 0.00 0.00 0.00 77 1012.2
20260510095511 59 0 0.0 2.0 0.00 0.00 0.00 76 1012.0
20260510095016 59 276 0.0 3.0 0.00 0.00 0.00 77 1012.1
20260510094545 59 276 1.0 3.0 0.00 0.00 0.00 77 1012.1
20260510094010 59 279 0.0 1.0 0.00 0.00 0.00 78 1012.2
20260510093512 59 0 0.0 3.0 0.00 0.00 0.00 78 1012.3
20260510093048 58 279 0.0 3.0 0.00 0.00 0.00 79 1012.2
20260510092512 58 345 0.0 2.0 0.00 0.00 0.00 80 1012.2
20260510092016 58 345 0.0 2.0 0.00 0.00 0.00 81 1012.1
20260510091541 58 345 0.0 2.0 0.00 0.00 0.00 80 1012.0
20260510091012 58 0 0.0 1.0 0.00 0.00 0.00 79 1011.6
20260510090512 58 127 0.0 1.0 0.00 0.00 0.00 79 1011.6
20260510090030 59 127 0.0 1.0 0.00 0.00 0.00 78 1011.6
20260510085512 60 159 0.0 1.0 0.00 0.00 0.00 76 1011.6
20260510085015 60 159 0.0 1.0 0.00 0.00 0.00 74 1011.6
20260510084529 61 159 0.0 1.0 0.00 0.00 0.00 73 1011.7
20260510084012 60 0 0.0 1.0 0.00 0.00 0.00 73 1011.7
20260510083512 60 180 0.0 1.0 0.00 0.00 0.00 74 1011.7
20260510083033 60 263 0.0 1.0 0.00 0.00 0.00 75 1011.6
20260510082512 60 262 0.0 1.0 0.00 0.00 0.00 76 1011.6
20260510082012 59 265 0.0 1.0 0.00 0.00 0.00 77 1011.6
20260510081530 58 136 0.0 1.0 0.00 0.00 0.00 78 1011.6
20260510081012 58 136 0.0 1.0 0.00 0.00 0.00 79 1011.5
20260510080513 58 0 0.0 0.0 0.00 0.00 0.00 79 1011.4
20260510080030 58 0 0.0 0.0 0.00 0.00 0.00 78 1011.3
20260510075512 58 0 0.0 1.0 0.00 0.00 0.00 78 1011.2
20260510075012 59 0 0.0 1.0 0.00 0.00 0.00 78 1011.1
20260510074532 59 0 0.0 1.0 0.00 0.00 0.00 78 1011.0
20260510074010 59 0 0.0 1.0 0.00 0.00 0.00 77 1011.0
20260510073511 59 0 0.0 1.0 0.00 0.00 0.00 77 1011.0
20260510073040 59 133 0.0 1.0 0.00 0.00 0.00 77 1010.9
20260510072509 59 0 0.0 1.0 0.00 0.00 0.00 77 1011.1
20260510072011 59 134 0.0 1.0 0.00 0.00 0.00 77 1010.9
20260510071529 59 133 0.0 1.0 0.00 0.00 0.00 77 1011.0
20260510071010 59 0 0.0 1.0 0.00 0.00 0.00 77 1010.9
20260510070510 59 133 0.0 2.0 0.00 0.00 0.00 77 1010.9
20260510070034 59 134 0.0 2.0 0.00 0.00 0.00 77 1010.8
20260510065510 59 133 0.0 2.0 0.00 0.00 0.00 77 1010.8
20260510065013 59 0 0.0 1.0 0.00 0.00 0.00 76 1010.8
20260510064532 59 271 0.0 1.0 0.00 0.00 0.00 76 1010.8
20260510064010 60 271 0.0 1.0 0.00 0.00 0.00 75 1010.7
20260510063513 60 271 0.0 1.0 0.00 0.00 0.00 75 1010.8
20260510063032 61 271 0.0 1.0 0.00 0.00 0.00 74 1010.9
20260510062511 61 271 0.0 1.0 0.00 0.00 0.00 72 1010.9
20260510062014 61 271 0.0 1.0 0.00 0.00 0.00 72 1011.0
20260510061532 61 0 0.0 1.0 0.00 0.00 0.00 72 1011.0
20260510061012 61 0 0.0 1.0 0.00 0.00 0.00 72 1011.0
20260510060515 61 0 0.0 1.0 0.00 0.00 0.00 72 1011.1
20260510060032 61 0 0.0 1.0 0.00 0.00 0.00 71 1011.1
20260510055510 61 0 0.0 1.0 0.00 0.00 0.00 71 1011.1
20260510055010 61 0 0.0 0.0 0.00 0.00 0.00 71 1011.1
20260510054532 62 0 0.0 0.0 0.00 0.00 0.00 70 1011.2
20260510054011 62 0 0.0 1.0 0.00 0.00 0.00 71 1011.3
20260510053512 62 0 0.0 1.0 0.00 0.00 0.00 71 1011.3
20260510053050 62 271 0.0 1.0 0.00 0.00 0.00 70 1011.5
20260510052513 63 0 0.0 1.0 0.00 0.00 0.00 70 1011.3
20260510052017 63 271 0.0 1.0 0.00 0.00 0.00 69 1011.3
20260510051530 63 0 0.0 1.0 0.00 0.00 0.00 68 1011.4
20260510051011 63 271 0.0 1.0 0.00 0.00 0.00 69 1011.2
20260510050510 63 276 0.0 1.0 0.00 0.00 0.00 68 1011.3
20260510050030 64 0 0.0 2.0 0.00 0.00 0.00 67 1011.3
20260510045510 64 0 0.0 2.0 0.00 0.00 0.00 67 1011.4
20260510045013 64 265 0.0 2.0 0.00 0.00 0.00 66 1011.5
20260510044530 64 257 0.0 2.0 0.00 0.00 0.00 66 1011.5
20260510044011 65 0 0.0 1.0 0.00 0.00 0.00 65 1011.4
20260510043513 65 266 0.0 1.0 0.00 0.00 0.00 65 1011.4
20260510043040 65 266 0.0 2.0 0.00 0.00 0.00 65 1011.3
20260510042512 65 266 0.0 2.0 0.00 0.00 0.00 64 1011.3
20260510042017 65 268 0.0 3.0 0.00 0.00 0.00 64 1011.3
20260510041531 65 233 0.0 3.0 0.00 0.00 0.00 64 1011.3
20260510041011 65 281 0.0 3.0 0.00 0.00 0.00 64 1011.2
20260510040513 66 245 1.0 3.0 0.00 0.00 0.00 64 1011.3
20260510040039 66 139 1.0 3.0 0.00 0.00 0.00 63 1011.3
20260510035514 66 248 1.0 3.0 0.00 0.00 0.00 63 1011.4
20260510035016 66 253 1.0 3.0 0.00 0.00 0.00 63 1011.3
20260510034532 66 259 1.0 5.0 0.00 0.00 0.00 63 1011.3
20260510034015 66 237 1.0 5.0 0.00 0.00 0.00 63 1011.3
20260510033517 66 262 0.0 3.0 0.00 0.00 0.00 63 1011.3
20260510033033 66 251 1.0 3.0 0.00 0.00 0.00 62 1011.3
20260510032514 66 257 0.0 3.0 0.00 0.00 0.00 62 1011.3
20260510032018 66 244 0.0 3.0 0.00 0.00 0.00 61 1011.3
20260510031534 67 291 1.0 3.0 0.00 0.00 0.00 61 1011.3
20260510031015 67 254 1.0 3.0 0.00 0.00 0.00 61 1011.3
20260510030512 67 172 1.0 3.0 0.00 0.00 0.00 60 1011.2
20260510030031 67 277 1.0 3.0 0.00 0.00 0.00 60 1011.1
20260510025514 67 221 1.0 3.0 0.00 0.00 0.00 60 1011.1
20260510025014 67 174 1.0 3.0 0.00 0.00 0.00 59 1011.1
20260510024531 67 166 1.0 3.0 0.00 0.00 0.00 59 1011.1
20260510024019 68 272 0.0 3.0 0.00 0.00 0.00 59 1011.2
20260510023513 68 198 1.0 3.0 0.00 0.00 0.00 59 1011.0
20260510023032 68 219 1.0 3.0 0.00 0.00 0.00 58 1011.0
20260510022515 68 171 1.0 3.0 0.00 0.00 0.00 58 1011.0
20260510022015 68 198 1.0 3.0 0.00 0.00 0.00 57 1010.9
20260510021539 68 261 1.0 3.0 0.00 0.00 0.00 57 1010.8
20260510021011 68 269 1.0 3.0 0.00 0.00 0.00 57 1010.8
20260510020513 69 269 1.0 3.0 0.00 0.00 0.00 57 1010.5
20260510020032 69 184 1.0 4.0 0.00 0.00 0.00 56 1010.3
20260510015514 69 267 1.0 4.0 0.00 0.00 0.00 56 1010.3
20260510015014 69 248 2.0 4.0 0.00 0.00 0.00 56 1010.1
20260510014535 69 256 1.0 3.0 0.00 0.00 0.00 55 1010.1
20260510014014 69 262 1.0 3.0 0.00 0.00 0.00 55 1010.0
20260510013516 69 278 1.0 3.0 0.00 0.00 0.00 55 1010.0
20260510013035 70 249 1.0 3.0 0.00 0.00 0.00 54 1009.9
20260510012514 70 267 1.0 3.0 0.00 0.00 0.00 54 1010.0
20260510012015 70 230 1.0 3.0 0.00 0.00 0.00 54 1009.9
20260510011541 70 253 1.0 3.0 0.00 0.00 0.00 53 1009.8
20260510011013 71 233 2.0 5.0 0.00 0.00 0.00 53 1009.7
20260510010513 71 263 2.0 5.0 0.00 0.00 0.00 52 1009.5
20260510010032 71 252 2.0 4.0 0.00 0.00 0.00 52 1009.4
20260510005513 71 276 2.0 4.0 0.00 0.00 0.00 51 1009.4
20260510005014 72 249 2.0 7.0 0.00 0.00 0.00 51 1009.3
20260510004532 72 267 2.0 7.0 0.00 0.00 0.00 51 1009.2
20260510004012 72 224 3.0 8.0 0.00 0.00 0.00 50 1009.2
20260510003514 73 186 3.0 8.0 0.00 0.00 0.00 49 1009.0
20260510003031 73 238 4.0 11.0 0.00 0.00 0.00 49 1009.0
20260510002514 73 293 3.0 11.0 0.00 0.00 0.00 48 1008.9
20260510002014 74 315 5.0 13.0 0.00 0.00 0.00 47 1008.8
20260510001534 74 228 4.0 13.0 0.00 0.00 0.00 47 1008.8
20260510001011 75 220 5.0 13.0 0.00 0.00 0.00 47 1008.6
20260510000515 75 193 3.0 10.0 0.00 0.00 0.00 47 1008.6
20260510000045 75 226 4.0 11.0 0.00 0.00 0.00 46 1008.5
20260509235516 75 285 3.0 13.0 0.00 0.00 0.00 46 1008.5
20260509235014 76 279 7.0 13.0 0.00 0.00 0.00 46 1008.3
20260509234534 76 345 5.0 11.0 0.00 0.00 0.00 45 1008.3
20260509234018 76 284 4.0 11.0 0.00 0.00 0.00 46 1008.3
20260509233511 76 218 6.0 11.0 0.00 0.00 0.00 45 1008.2
20260509233033 76 259 6.0 11.0 0.00 0.00 0.00 45 1008.3
20260509232513 76 251 5.0 11.0 0.00 0.00 0.00 45 1008.2
20260509232014 76 264 4.0 14.0 0.00 0.00 0.00 45 1008.2
20260509231531 76 278 7.0 14.0 0.00 0.00 0.00 44 1008.2
20260509231014 76 318 5.0 13.0 0.00 0.00 0.00 44 1008.2
20260509230512 76 270 7.0 13.0 0.00 0.00 0.00 44 1008.2
20260509230034 77 265 5.0 13.0 0.00 0.00 0.00 44 1008.4
20260509225512 77 281 6.0 12.0 0.00 0.00 0.00 42 1008.3
20260509225014 77 297 7.0 12.0 0.00 0.00 0.00 42 1008.2
20260509224531 77 242 8.0 12.0 0.00 0.00 0.00 41 1008.1
20260509224010 78 219 3.0 9.0 0.00 0.00 0.00 43 1008.1
20260509223517 78 283 3.0 9.0 0.00 0.00 0.00 45 1008.2
20260509223032 77 302 5.0 14.0 0.00 0.00 0.00 43 1008.1
20260509222512 77 280 6.0 15.0 0.00 0.00 0.00 42 1008.2
20260509222019 77 206 7.0 15.0 0.00 0.00 0.00 43 1008.2
20260509221533 78 221 4.0 9.0 0.00 0.00 0.00 45 1008.2
20260509221014 78 260 3.0 7.0 0.00 0.00 0.00 45 1008.1
20260509220511 78 281 4.0 8.0 0.00 0.00 0.00 45 1008.1
20260509220034 77 268 5.0 10.0 0.00 0.00 0.00 45 1008.1
20260509215512 77 180 4.0 12.0 0.00 0.00 0.00 44 1008.0
20260509215014 77 201 4.0 12.0 0.00 0.00 0.00 44 1008.1
20260509214537 77 212 4.0 11.0 0.00 0.00 0.00 45 1008.2
20260509214014 77 299 6.0 11.0 0.00 0.00 0.00 44 1008.2
20260509213514 77 203 4.0 10.0 0.00 0.00 0.00 44 1008.2
20260509213033 77 277 4.0 10.0 0.00 0.00 0.00 44 1008.5
20260509212517 76 285 5.0 12.0 0.00 0.00 0.00 44 1008.3
20260509212015 77 288 6.0 12.0 0.00 0.00 0.00 44 1008.3
20260509211532 77 225 7.0 12.0 0.00 0.00 0.00 43 1008.3
20260509211013 77 249 3.0 11.0 0.00 0.00 0.00 44 1008.2
20260509210514 77 309 4.0 11.0 0.00 0.00 0.00 45 1008.2
20260509210034 77 232 4.0 9.0 0.00 0.00 0.00 47 1008.2
20260509205511 77 227 4.0 9.0 0.00 0.00 0.00 47 1008.3
20260509205011 77 323 3.0 8.0 0.00 0.00 0.00 46 1008.3
20260509204536 77 311 1.0 11.0 0.00 0.00 0.00 45 1008.3
20260509204012 77 182 5.0 11.0 0.00 0.00 0.00 47 1008.4
20260509203514 77 208 6.0 11.0 0.00 0.00 0.00 47 1008.4
20260509203031 76 261 2.0 10.0 0.00 0.00 0.00 51 1008.4
20260509202513 76 260 3.0 10.0 0.00 0.00 0.00 50 1008.4
20260509202016 76 146 4.0 9.0 0.00 0.00 0.00 50 1008.6
20260509201529 76 271 2.0 8.0 0.00 0.00 0.00 52 1008.7
20260509201010 76 178 3.0 12.0 0.00 0.00 0.00 50 1008.7
20260509200516 76 174 3.0 12.0 0.00 0.00 0.00 52 1008.7
20260509200032 75 282 4.0 10.0 0.00 0.00 0.00 53 1008.7
20260509195512 75 275 3.0 10.0 0.00 0.00 0.00 49 1008.8
20260509195010 75 256 6.0 10.0 0.00 0.00 0.00 49 1008.9
20260509194534 76 197 5.0 10.0 0.00 0.00 0.00 53 1008.9
20260509194016 76 178 3.0 9.0 0.00 0.00 0.00 52 1008.9
20260509193512 75 146 2.0 12.0 0.00 0.00 0.00 53 1008.9
20260509193034 75 234 5.0 12.0 0.00 0.00 0.00 53 1009.0
20260509192514 75 15 2.0 8.0 0.00 0.00 0.00 54 1009.0
20260509192013 75 281 2.0 9.0 0.00 0.00 0.00 52 1009.1
20260509191547 74 7 3.0 9.0 0.00 0.00 0.00 53 1009.1
20260509191011 74 250 4.0 11.0 0.00 0.00 0.00 55 1009.1
20260509190514 74 153 3.0 11.0 0.00 0.00 0.00 56 1009.1
20260509190033 74 248 4.0 11.0 0.00 0.00 0.00 56 1009.2
20260509185511 74 210 3.0 11.0 0.00 0.00 0.00 54 1009.2
20260509185013 73 135 5.0 11.0 0.00 0.00 0.00 57 1009.2
20260509184544 73 273 2.0 11.0 0.00 0.00 0.00 56 1009.3
20260509184015 73 307 4.0 11.0 0.00 0.00 0.00 57 1009.4
20260509183512 73 271 7.0 11.0 0.00 0.00 0.00 55 1009.4
20260509183043 73 247 2.0 12.0 0.00 0.00 0.00 58 1009.3
20260509182514 73 258 6.0 12.0 0.00 0.00 0.00 58 1009.3
20260509182011 72 132 4.0 11.0 0.00 0.00 0.00 57 1009.3
20260509181532 72 133 4.0 11.0 0.00 0.00 0.00 57 1009.2
20260509181014 72 302 3.0 9.0 0.00 0.00 0.00 59 1009.4
20260509180512 72 299 2.0 10.0 0.00 0.00 0.00 57 1009.5
20260509180031 72 282 5.0 10.0 0.00 0.00 0.00 57 1009.4
20260509175518 72 279 3.0 8.0 0.00 0.00 0.00 57 1009.4
20260509175018 72 255 4.0 10.0 0.00 0.00 0.00 59 1009.3
20260509174532 71 23 3.0 13.0 0.00 0.00 0.00 61 1009.4
20260509174011 71 277 4.0 13.0 0.00 0.00 0.00 60 1009.5
20260509173517 71 296 5.0 13.0 0.00 0.00 0.00 61 1009.6
20260509173031 70 248 6.0 10.0 0.00 0.00 0.00 62 1009.4
20260509172513 70 316 4.0 10.0 0.00 0.00 0.00 61 1009.5
20260509172011 70 277 5.0 10.0 0.00 0.00 0.00 61 1009.5
20260509171531 69 274 4.0 10.0 0.00 0.00 0.00 62 1009.4
20260509171013 69 64 3.0 8.0 0.00 0.00 0.00 61 1009.5
20260509170513 69 293 2.0 9.0 0.00 0.00 0.00 62 1009.4
20260509170030 70 195 4.0 12.0 0.00 0.00 0.00 61 1009.5
20260509165511 70 297 5.0 12.0 0.00 0.00 0.00 63 1009.7
20260509165011 70 184 4.0 11.0 0.00 0.00 0.00 62 1009.6
20260509164531 69 290 2.0 13.0 0.00 0.00 0.00 62 1009.6
20260509164011 69 320 2.0 13.0 0.00 0.00 0.00 61 1009.6
20260509163513 68 264 8.0 13.0 0.00 0.00 0.00 61 1009.5
20260509163039 69 233 4.0 10.0 0.00 0.00 0.00 62 1009.4
20260509162513 69 359 5.0 10.0 0.00 0.00 0.00 64 1009.3
20260509162016 69 266 5.0 9.0 0.00 0.00 0.00 62 1009.3
20260509161530 68 274 2.0 8.0 0.00 0.00 0.00 64 1009.4
20260509161013 68 355 2.0 10.0 0.00 0.00 0.00 65 1009.5
20260509160514 68 230 3.0 10.0 0.00 0.00 0.00 63 1009.6
20260509160030 68 258 3.0 10.0 0.00 0.00 0.00 63 1009.5
20260509155513 68 267 3.0 7.0 0.00 0.00 0.00 65 1009.4
20260509155014 67 256 2.0 11.0 0.00 0.00 0.00 65 1009.3
20260509154529 67 160 5.0 11.0 0.00 0.00 0.00 66 1009.3
20260509154014 67 292 2.0 11.0 0.00 0.00 0.00 67 1009.3
20260509153512 67 296 4.0 11.0 0.00 0.00 0.00 67 1009.3
20260509153043 66 250 5.0 11.0 0.00 0.00 0.00 67 1009.4
20260509152523 66 0 2.0 9.0 0.00 0.00 0.00 68 1009.4
20260509152013 66 243 3.0 8.0 0.00 0.00 0.00 68 1009.3
20260509151534 65 150 3.0 9.0 0.00 0.00 0.00 68 1009.3
20260509151012 65 283 5.0 9.0 0.00 0.00 0.00 67 1009.2
20260509150515 65 258 4.0 7.0 0.00 0.00 0.00 67 1009.1
20260509150032 65 288 3.0 6.0 0.00 0.00 0.00 68 1009.1
20260509145513 64 323 2.0 6.0 0.00 0.00 0.00 70 1009.2
20260509145014 64 309 3.0 6.0 0.00 0.00 0.00 69 1009.2
20260509144533 64 235 1.0 9.0 0.00 0.00 0.00 71 1009.2
20260509144015 64 226 1.0 9.0 0.00 0.00 0.00 70 1009.2
20260509143511 64 305 2.0 7.0 0.00 0.00 0.00 71 1009.1
20260509143030 64 200 2.0 9.0 0.00 0.00 0.00 71 1009.1
20260509142516 63 142 3.0 9.0 0.00 0.00 0.00 71 1009.0
20260509142012 62 256 5.0 9.0 0.00 0.00 0.00 72 1009.1
20260509141531 62 124 4.0 9.0 0.00 0.00 0.00 73 1009.0
20260509141012 62 241 4.0 9.0 0.00 0.00 0.00 72 1009.1
20260509140511 62 233 4.0 9.0 0.00 0.00 0.00 73 1009.1
20260509140029 62 138 1.0 6.0 0.00 0.00 0.00 75 1009.0
20260509135512 62 155 2.0 6.0 0.00 0.00 0.00 74 1009.0
20260509135014 62 126 2.0 6.0 0.00 0.00 0.00 76 1008.9
20260509134531 61 143 2.0 5.0 0.00 0.00 0.00 77 1008.9
20260509134011 61 153 1.0 4.0 0.00 0.00 0.00 77 1009.1
20260509133512 60 133 2.0 4.0 0.00 0.00 0.00 79 1009.0
20260509133030 59 73 1.0 5.0 0.00 0.00 0.00 81 1008.9
20260509132515 58 140 1.0 5.0 0.00 0.00 0.00 83 1008.9
20260509132017 58 141 1.0 5.0 0.00 0.00 0.00 84 1009.0
20260509131533 57 118 1.0 5.0 0.00 0.00 0.00 84 1008.9
20260509131010 57 139 1.0 5.0 0.00 0.00 0.00 84 1008.9
20260509130514 57 136 0.0 5.0 0.00 0.00 0.00 85 1008.9
20260509130038 57 110 1.0 5.0 0.00 0.00 0.00 85 1008.7
20260509125512 57 81 2.0 5.0 0.00 0.00 0.00 85 1008.6
20260509125014 56 60 2.0 5.0 0.00 0.00 0.00 86 1008.6
20260509124538 56 76 2.0 4.0 0.00 0.00 0.00 86 1008.6
20260509124013 56 130 1.0 4.0 0.00 0.00 0.00 86 1008.7
20260509123513 56 57 1.0 4.0 0.00 0.00 0.00 86 1008.8
20260509123034 56 72 1.0 4.0 0.00 0.00 0.00 86 1008.8
20260509122514 56 57 1.0 7.0 0.00 0.00 0.00 86 1008.8
20260509122013 56 51 2.0 7.0 0.00 0.00 0.00 86 1008.8
20260509121534 56 63 2.0 6.0 0.00 0.00 0.00 87 1008.6
20260509121014 56 116 2.0 6.0 0.00 0.00 0.00 87 1008.6
20260509120513 56 101 2.0 7.0 0.00 0.00 0.00 87 1008.6
20260509120032 56 86 3.0 7.0 0.00 0.00 0.00 87 1008.4
20260509115510 56 92 1.0 5.0 0.00 0.00 0.00 87 1008.5
20260509115014 56 0 1.0 4.0 0.00 0.00 0.00 88 1008.3
20260509114532 55 58 2.0 6.0 0.00 0.00 0.00 88 1008.3
20260509114013 55 84 1.0 6.0 0.00 0.00 0.00 88 1008.2
20260509113514 55 60 2.0 6.0 0.00 0.00 0.00 88 1008.0
20260509113036 55 87 2.0 6.0 0.00 0.00 0.00 88 1008.1
20260509112512 55 73 3.0 6.0 0.00 0.00 0.00 87 1008.0
20260509112011 55 57 2.0 7.0 0.00 0.00 0.00 88 1008.2
20260509111531 55 57 3.0 7.0 0.00 0.00 0.00 88 1008.0
20260509111014 55 58 3.0 6.0 0.00 0.00 0.00 87 1007.9
20260509110514 55 61 3.0 7.0 0.00 0.00 0.00 87 1008.0